| time (UTC) | temp F | wind direction | speed knots | gust knots | rain 1hr in | rain 24hr in | rain mn in | humidity % | barometer mb |
| 20260509091527 | 57 | 55 | 0.9 | 5.2 | 0.00 | 0.00 | 0.00 | 52 | 1024.3 |
| 20260509091026 | 57 | 173 | 1.7 | 5.2 | 0.00 | 0.00 | 0.00 | 50 | 1024.3 |
| 20260509090528 | 57 | 74 | 0.9 | 5.2 | 0.00 | 0.00 | 0.00 | 51 | 1024.3 |
| 20260509090026 | 57 | 92 | 1.7 | 4.3 | 0.00 | 0.00 | 0.00 | 52 | 1024.3 |
| 20260509085523 | 57 | 138 | 0.9 | 5.2 | 0.00 | 0.00 | 0.00 | 52 | 1024.3 |
| 20260509085021 | 56 | 80 | 1.7 | 6.1 | 0.00 | 0.00 | 0.00 | 54 | 1024.3 |
| 20260509084521 | 56 | 194 | 1.7 | 5.2 | 0.00 | 0.00 | 0.00 | 54 | 1024.4 |
| 20260509084021 | 56 | 123 | 1.7 | 7.0 | 0.00 | 0.00 | 0.00 | 54 | 1024.5 |
| 20260509083519 | 56 | 103 | 1.7 | 6.1 | 0.00 | 0.00 | 0.00 | 52 | 1024.5 |
| 20260509083021 | 56 | 95 | 0.9 | 6.1 | 0.00 | 0.00 | 0.00 | 52 | 1024.6 |
| 20260509082518 | 56 | 55 | 0.9 | 6.1 | 0.00 | 0.00 | 0.00 | 55 | 1024.5 |
| 20260509082017 | 55 | 65 | 1.7 | 6.1 | 0.00 | 0.00 | 0.00 | 54 | 1024.5 |
| 20260509081517 | 55 | 200 | 2.6 | 5.2 | 0.00 | 0.00 | 0.00 | 55 | 1024.6 |
| 20260509081019 | 55 | 158 | 1.7 | 5.2 | 0.00 | 0.00 | 0.00 | 54 | 1024.5 |
| 20260509080514 | 55 | 196 | 1.7 | 5.2 | 0.00 | 0.00 | 0.00 | 53 | 1024.4 |
| 20260509080012 | 55 | 171 | 1.7 | 7.0 | 0.00 | 0.00 | 0.00 | 54 | 1024.5 |
| 20260509075512 | 55 | 115 | 1.7 | 7.0 | 0.00 | 0.00 | 0.00 | 51 | 1024.4 |
| 20260509075012 | 55 | 192 | 0.9 | 5.2 | 0.00 | 0.00 | 0.00 | 56 | 1024.4 |
| 20260509074509 | 54 | 34 | 1.7 | 5.2 | 0.00 | 0.00 | 0.00 | 55 | 1024.3 |
| 20260509074008 | 54 | 217 | 2.6 | 5.2 | 0.00 | 0.00 | 0.00 | 55 | 1024.3 |
| 20260509073507 | 54 | 153 | 0.0 | 4.3 | 0.00 | 0.00 | 0.00 | 55 | 1024.5 |
| 20260509073009 | 54 | 193 | 1.7 | 4.3 | 0.00 | 0.00 | 0.00 | 54 | 1024.5 |
| 20260509072506 | 54 | 69 | 0.9 | 4.3 | 0.00 | 0.00 | 0.00 | 57 | 1024.5 |
| 20260509072005 | 53 | 205 | 1.7 | 6.1 | 0.00 | 0.00 | 0.00 | 55 | 1024.5 |
| 20260509071504 | 53 | 192 | 2.6 | 6.1 | 0.00 | 0.00 | 0.00 | 55 | 1024.5 |
| 20260509071003 | 54 | 200 | 2.6 | 4.3 | 0.00 | 0.00 | 0.00 | 56 | 1024.6 |
| 20260509070504 | 53 | 69 | 0.9 | 3.5 | 0.00 | 0.00 | 0.00 | 56 | 1024.5 |
| 20260509070101 | 53 | 146 | 0.9 | 8.7 | 0.00 | 0.00 | 0.00 | 55 | 1024.5 |
| 20260509065604 | 53 | 193 | 0.9 | 8.7 | 0.00 | 0.00 | 0.00 | 57 | 1024.6 |
| 20260509065200 | 53 | 107 | 0.9 | 4.3 | 0.00 | 0.00 | 0.00 | 57 | 1024.6 |
| 20260509064617 | 53 | 154 | 1.7 | 4.3 | 0.00 | 0.00 | 0.00 | 55 | 1024.5 |
| 20260509064058 | 54 | 276 | 0.9 | 5.2 | 0.00 | 0.00 | 0.00 | 57 | 1024.5 |
| 20260509063555 | 53 | 128 | 0.9 | 4.3 | 0.00 | 0.00 | 0.00 | 58 | 1024.5 |
| 20260509063054 | 53 | 152 | 0.9 | 6.1 | 0.00 | 0.00 | 0.00 | 58 | 1024.5 |
| 20260509062554 | 52 | 180 | 1.7 | 6.1 | 0.00 | 0.00 | 0.00 | 60 | 1024.4 |
| 20260509062051 | 52 | 192 | 2.6 | 3.5 | 0.00 | 0.00 | 0.00 | 59 | 1024.4 |
| 20260509061559 | 52 | 182 | 1.7 | 4.3 | 0.00 | 0.00 | 0.00 | 59 | 1024.3 |
| 20260509061048 | 52 | 119 | 0.9 | 4.3 | 0.00 | 0.00 | 0.00 | 60 | 1024.3 |
| 20260509060547 | 51 | 188 | 0.9 | 4.3 | 0.00 | 0.00 | 0.00 | 62 | 1024.4 |
| 20260509060047 | 50 | 184 | 0.0 | 4.3 | 0.00 | 0.00 | 0.00 | 65 | 1024.3 |
| 20260509055544 | 50 | 208 | 0.9 | 4.3 | 0.00 | 0.00 | 0.00 | 66 | 1024.4 |
| 20260509055042 | 49 | 188 | 0.9 | 4.3 | 0.00 | 0.00 | 0.00 | 70 | 1024.4 |
| 20260509054541 | 48 | 117 | 0.9 | 4.3 | 0.00 | 0.00 | 0.00 | 74 | 1024.4 |
| 20260509054040 | 46 | 237 | 0.9 | 2.6 | 0.00 | 0.00 | 0.00 | 79 | 1024.4 |
| 20260509053538 | 44 | 153 | 0.9 | 2.6 | 0.00 | 0.00 | 0.00 | 86 | 1024.4 |
| 20260509053037 | 42 | 182 | 0.9 | 2.6 | 0.00 | 0.00 | 0.00 | 90 | 1024.5 |
| 20260509052534 | 40 | 182 | 0.0 | 2.6 | 0.00 | 0.00 | 0.00 | 90 | 1024.4 |
| 20260509052034 | 40 | 191 | 0.0 | 0.0 | 0.00 | 0.00 | 0.00 | 91 | 1024.4 |
| 20260509051537 | 39 | 191 | 0.0 | 0.0 | 0.00 | 0.00 | 0.00 | 91 | 1024.4 |
| 20260509051034 | 38 | 191 | 0.0 | 0.0 | 0.00 | 0.00 | 0.00 | 91 | 1024.4 |
| 20260509050534 | 37 | 191 | 0.0 | 0.0 | 0.00 | 0.00 | 0.00 | 91 | 1024.3 |
| 20260509050035 | 37 | 191 | 0.0 | 0.0 | 0.00 | 0.00 | 0.00 | 91 | 1024.4 |
| 20260509045532 | 36 | 191 | 0.0 | 0.0 | 0.00 | 0.00 | 0.00 | 91 | 1024.4 |
| 20260509045033 | 36 | 191 | 0.0 | 0.0 | 0.00 | 0.00 | 0.00 | 90 | 1024.4 |
| 20260509044533 | 35 | 191 | 0.0 | 0.0 | 0.00 | 0.00 | 0.00 | 90 | 1024.4 |
| 20260509044031 | 35 | 191 | 0.0 | 0.0 | 0.00 | 0.00 | 0.00 | 90 | 1024.3 |
| 20260509043530 | 35 | 191 | 0.0 | 0.0 | 0.00 | 0.00 | 0.00 | 89 | 1024.4 |
| 20260509043029 | 34 | 191 | 0.0 | 0.9 | 0.00 | 0.00 | 0.00 | 89 | 1024.4 |
| 20260509042529 | 34 | 191 | 0.0 | 0.9 | 0.00 | 0.00 | 0.00 | 89 | 1024.4 |
| 20260509042028 | 34 | 191 | 0.0 | 0.9 | 0.00 | 0.00 | 0.00 | 89 | 1024.5 |
| 20260509041527 | 34 | 191 | 0.0 | 0.9 | 0.00 | 0.00 | 0.00 | 89 | 1024.5 |
| 20260509041028 | 34 | 191 | 0.0 | 0.9 | 0.00 | 0.00 | 0.00 | 89 | 1024.5 |
| 20260509040528 | 34 | 191 | 0.0 | 0.0 | 0.00 | 0.00 | 0.00 | 88 | 1024.5 |
| 20260509040025 | 34 | 191 | 0.0 | 0.9 | 0.00 | 0.00 | 0.00 | 88 | 1024.5 |
| 20260509035528 | 34 | 191 | 0.0 | 0.9 | 0.00 | 0.00 | 0.00 | 88 | 1024.6 |
| 20260509035026 | 35 | 191 | 0.0 | 0.9 | 0.00 | 0.00 | 0.00 | 87 | 1024.6 |
| 20260509034538 | 35 | 191 | 0.0 | 0.9 | 0.00 | 0.00 | 0.00 | 87 | 1024.6 |
| 20260509034024 | 35 | 191 | 0.0 | 0.9 | 0.00 | 0.00 | 0.00 | 87 | 1024.6 |
| 20260509033520 | 35 | 191 | 0.0 | 0.9 | 0.00 | 0.00 | 0.00 | 87 | 1024.6 |
| 20260509033019 | 35 | 191 | 0.0 | 0.9 | 0.00 | 0.00 | 0.00 | 87 | 1024.6 |
| 20260509032518 | 35 | 191 | 0.0 | 0.9 | 0.00 | 0.00 | 0.00 | 87 | 1024.6 |
| 20260509032020 | 36 | 191 | 0.0 | 0.9 | 0.00 | 0.00 | 0.00 | 86 | 1024.6 |
| 20260509031516 | 36 | 191 | 0.0 | 0.9 | 0.00 | 0.00 | 0.00 | 86 | 1024.6 |
| 20260509031015 | 36 | 191 | 0.0 | 0.9 | 0.00 | 0.00 | 0.00 | 85 | 1024.6 |
| 20260509030515 | 36 | 191 | 0.0 | 0.9 | 0.00 | 0.00 | 0.00 | 85 | 1024.6 |
| 20260509030019 | 37 | 191 | 0.0 | 0.9 | 0.00 | 0.00 | 0.00 | 84 | 1024.6 |
| 20260509025514 | 37 | 191 | 0.0 | 1.7 | 0.00 | 0.00 | 0.00 | 84 | 1024.6 |
| 20260509025010 | 38 | 191 | 0.0 | 1.7 | 0.00 | 0.00 | 0.00 | 83 | 1024.6 |
| 20260509024510 | 38 | 191 | 0.0 | 0.9 | 0.00 | 0.00 | 0.00 | 83 | 1024.6 |
| 20260509024011 | 38 | 191 | 0.0 | 0.9 | 0.00 | 0.00 | 0.00 | 83 | 1024.7 |
| 20260509023509 | 39 | 191 | 0.0 | 0.9 | 0.00 | 0.00 | 0.00 | 82 | 1024.7 |
| 20260509023008 | 39 | 191 | 0.0 | 0.9 | 0.00 | 0.00 | 0.00 | 82 | 1024.8 |
| 20260509022507 | 39 | 191 | 0.0 | 0.9 | 0.00 | 0.00 | 0.00 | 81 | 1024.8 |
| 20260509022008 | 40 | 191 | 0.0 | 0.9 | 0.00 | 0.00 | 0.00 | 79 | 1024.8 |
| 20260509021508 | 40 | 191 | 0.0 | 0.9 | 0.00 | 0.00 | 0.00 | 78 | 1024.8 |
| 20260509021010 | 41 | 191 | 0.0 | 1.7 | 0.00 | 0.00 | 0.00 | 78 | 1024.8 |
| 20260509020512 | 41 | 191 | 0.0 | 1.7 | 0.00 | 0.00 | 0.00 | 77 | 1024.9 |
| 20260509020006 | 42 | 191 | 0.0 | 3.5 | 0.00 | 0.00 | 0.00 | 78 | 1024.8 |
| 20260509015507 | 41 | 164 | 0.9 | 3.5 | 0.00 | 0.00 | 0.00 | 80 | 1024.8 |
| 20260509015006 | 41 | 168 | 0.0 | 2.6 | 0.00 | 0.00 | 0.00 | 81 | 1024.8 |
| 20260509014504 | 40 | 223 | 0.0 | 2.6 | 0.00 | 0.00 | 0.00 | 83 | 1024.9 |
| 20260509014004 | 40 | 206 | 0.0 | 2.6 | 0.00 | 0.00 | 0.00 | 83 | 1024.9 |
| 20260509013503 | 39 | 206 | 0.0 | 2.6 | 0.00 | 0.00 | 0.00 | 85 | 1024.9 |
| 20260509013003 | 39 | 213 | 0.0 | 1.7 | 0.00 | 0.00 | 0.00 | 87 | 1024.9 |
| 20260509012504 | 38 | 195 | 0.0 | 1.7 | 0.00 | 0.00 | 0.00 | 87 | 1024.9 |
| 20260509012002 | 38 | 196 | 0.0 | 1.7 | 0.00 | 0.00 | 0.00 | 87 | 1024.9 |
| 20260509011502 | 38 | 196 | 0.0 | 1.7 | 0.00 | 0.00 | 0.00 | 87 | 1025.0 |
| 20260509011002 | 38 | 196 | 0.0 | 1.7 | 0.00 | 0.00 | 0.00 | 88 | 1025.0 |
| 20260509010502 | 38 | 196 | 0.0 | 1.7 | 0.00 | 0.00 | 0.00 | 87 | 1025.0 |
| 20260509010107 | 38 | 196 | 0.0 | 1.7 | 0.00 | 0.00 | 0.00 | 88 | 1025.0 |
| 20260509005603 | 38 | 196 | 0.0 | 1.7 | 0.00 | 0.00 | 0.00 | 88 | 1025.0 |
| 20260509005059 | 38 | 196 | 0.0 | 1.7 | 0.00 | 0.00 | 0.00 | 88 | 1025.0 |
| 20260509004622 | 38 | 196 | 0.0 | 0.9 | 0.00 | 0.00 | 0.00 | 88 | 1025.0 |
| 20260509004058 | 38 | 196 | 0.0 | 0.9 | 0.00 | 0.00 | 0.00 | 88 | 1025.0 |
| 20260509003602 | 38 | 196 | 0.0 | 0.9 | 0.00 | 0.00 | 0.00 | 88 | 1025.1 |
| 20260509003057 | 38 | 196 | 0.0 | 0.0 | 0.00 | 0.00 | 0.00 | 88 | 1025.1 |
| 20260509002556 | 38 | 196 | 0.0 | 0.0 | 0.00 | 0.00 | 0.00 | 88 | 1025.1 |
| 20260509002056 | 38 | 196 | 0.0 | 0.9 | 0.00 | 0.00 | 0.00 | 87 | 1025.1 |
| 20260509001557 | 38 | 196 | 0.0 | 0.9 | 0.00 | 0.00 | 0.00 | 87 | 1025.1 |
| 20260509001055 | 38 | 196 | 0.0 | 0.0 | 0.00 | 0.00 | 0.00 | 87 | 1025.1 |
| 20260509000554 | 39 | 196 | 0.0 | 0.0 | 0.00 | 0.00 | 0.00 | 87 | 1025.1 |
| 20260509000054 | 39 | 196 | 0.0 | 0.0 | 0.00 | 0.00 | 0.00 | 87 | 1025.1 |
| 20260508235553 | 39 | 196 | 0.0 | 0.0 | 0.00 | 0.00 | 0.00 | 87 | 1025.0 |
| 20260508235055 | 39 | 196 | 0.0 | 0.0 | 0.00 | 0.00 | 0.00 | 87 | 1025.0 |
| 20260508234552 | 39 | 196 | 0.0 | 0.0 | 0.00 | 0.00 | 0.00 | 87 | 1025.1 |
| 20260508234054 | 39 | 196 | 0.0 | 0.0 | 0.00 | 0.00 | 0.00 | 87 | 1025.0 |
| 20260508233554 | 40 | 196 | 0.0 | 0.0 | 0.00 | 0.00 | 0.00 | 87 | 1025.1 |
| 20260508233050 | 40 | 196 | 0.0 | 0.0 | 0.00 | 0.00 | 0.00 | 87 | 1025.0 |
| 20260508232549 | 40 | 196 | 0.0 | 0.0 | 0.00 | 0.00 | 0.00 | 87 | 1025.1 |
| 20260508232050 | 40 | 196 | 0.0 | 0.0 | 0.00 | 0.00 | 0.00 | 87 | 1025.1 |
| 20260508231547 | 40 | 196 | 0.0 | 0.0 | 0.00 | 0.00 | 0.00 | 87 | 1025.1 |
| 20260508231047 | 40 | 196 | 0.0 | 0.0 | 0.00 | 0.00 | 0.00 | 87 | 1025.1 |
| 20260508230547 | 40 | 196 | 0.0 | 0.0 | 0.00 | 0.00 | 0.00 | 87 | 1025.1 |
| 20260508230051 | 40 | 196 | 0.0 | 0.0 | 0.00 | 0.00 | 0.00 | 87 | 1025.0 |
| 20260508225546 | 40 | 196 | 0.0 | 0.0 | 0.00 | 0.00 | 0.00 | 87 | 1025.1 |
| 20260508225045 | 41 | 196 | 0.0 | 0.0 | 0.00 | 0.00 | 0.00 | 86 | 1025.0 |
| 20260508224550 | 41 | 196 | 0.0 | 0.0 | 0.00 | 0.00 | 0.00 | 86 | 1025.0 |
| 20260508224043 | 41 | 196 | 0.0 | 0.0 | 0.00 | 0.00 | 0.00 | 86 | 1025.0 |
| 20260508223543 | 41 | 196 | 0.0 | 0.0 | 0.00 | 0.00 | 0.00 | 86 | 1025.1 |
| 20260508223048 | 41 | 196 | 0.0 | 0.0 | 0.00 | 0.00 | 0.00 | 85 | 1025.0 |
| 20260508222540 | 42 | 196 | 0.0 | 0.0 | 0.00 | 0.00 | 0.00 | 85 | 1025.0 |
| 20260508222040 | 42 | 196 | 0.0 | 0.0 | 0.00 | 0.00 | 0.00 | 85 | 1024.9 |
| 20260508221539 | 42 | 196 | 0.0 | 0.0 | 0.00 | 0.00 | 0.00 | 85 | 1024.9 |
| 20260508221039 | 42 | 196 | 0.0 | 0.9 | 0.00 | 0.00 | 0.00 | 85 | 1024.9 |
| 20260508220539 | 42 | 195 | 0.0 | 0.9 | 0.00 | 0.00 | 0.00 | 85 | 1024.9 |
| 20260508220037 | 42 | 196 | 0.0 | 0.9 | 0.00 | 0.00 | 0.00 | 86 | 1024.9 |
| 20260508215537 | 42 | 196 | 0.0 | 3.5 | 0.00 | 0.00 | 0.00 | 86 | 1024.9 |
| 20260508215037 | 42 | 196 | 0.9 | 3.5 | 0.00 | 0.00 | 0.00 | 87 | 1024.8 |
| 20260508214552 | 42 | 195 | 0.0 | 0.9 | 0.00 | 0.00 | 0.00 | 86 | 1024.8 |
| 20260508214038 | 42 | 195 | 0.0 | 0.0 | 0.00 | 0.00 | 0.00 | 86 | 1024.8 |
| 20260508213536 | 42 | 195 | 0.0 | 0.0 | 0.00 | 0.00 | 0.00 | 86 | 1024.8 |
| 20260508213035 | 42 | 195 | 0.0 | 0.0 | 0.00 | 0.00 | 0.00 | 86 | 1024.8 |
| 20260508212535 | 42 | 195 | 0.0 | 0.0 | 0.00 | 0.00 | 0.00 | 86 | 1024.8 |
| 20260508212036 | 43 | 195 | 0.0 | 0.0 | 0.00 | 0.00 | 0.00 | 86 | 1024.7 |
| 20260508211534 | 43 | 195 | 0.0 | 0.0 | 0.00 | 0.00 | 0.00 | 86 | 1024.6 |
| 20260508211034 | 43 | 195 | 0.0 | 0.0 | 0.00 | 0.00 | 0.00 | 85 | 1024.7 |
| 20260508210534 | 43 | 195 | 0.0 | 0.0 | 0.00 | 0.00 | 0.00 | 85 | 1024.7 |
| 20260508210037 | 43 | 195 | 0.0 | 0.0 | 0.00 | 0.00 | 0.00 | 85 | 1024.6 |
| 20260508205533 | 44 | 195 | 0.0 | 0.0 | 0.00 | 0.00 | 0.00 | 85 | 1024.6 |
| 20260508205033 | 44 | 195 | 0.0 | 0.0 | 0.00 | 0.00 | 0.00 | 84 | 1024.5 |
| 20260508204536 | 44 | 195 | 0.0 | 0.0 | 0.00 | 0.00 | 0.00 | 84 | 1024.5 |
| 20260508204032 | 44 | 195 | 0.0 | 0.0 | 0.00 | 0.00 | 0.00 | 84 | 1024.5 |
| 20260508203532 | 45 | 195 | 0.0 | 0.0 | 0.00 | 0.00 | 0.00 | 84 | 1024.5 |
| 20260508203031 | 45 | 195 | 0.0 | 0.0 | 0.00 | 0.00 | 0.00 | 84 | 1024.4 |
| 20260508202530 | 45 | 195 | 0.0 | 0.0 | 0.00 | 0.00 | 0.00 | 83 | 1024.4 |
| 20260508202030 | 45 | 195 | 0.0 | 0.0 | 0.00 | 0.00 | 0.00 | 83 | 1024.3 |
| 20260508201531 | 46 | 195 | 0.0 | 0.0 | 0.00 | 0.00 | 0.00 | 83 | 1024.2 |
| 20260508201029 | 46 | 195 | 0.0 | 0.0 | 0.00 | 0.00 | 0.00 | 82 | 1024.2 |
| 20260508200529 | 47 | 195 | 0.0 | 0.0 | 0.00 | 0.00 | 0.00 | 81 | 1024.1 |
| 20260508200030 | 47 | 195 | 0.0 | 0.0 | 0.00 | 0.00 | 0.00 | 81 | 1024.1 |
| 20260508195528 | 47 | 195 | 0.0 | 0.0 | 0.00 | 0.00 | 0.00 | 80 | 1024.1 |
| 20260508195028 | 48 | 195 | 0.0 | 0.0 | 0.00 | 0.00 | 0.00 | 80 | 1024.1 |
| 20260508194528 | 48 | 195 | 0.0 | 0.0 | 0.00 | 0.00 | 0.00 | 79 | 1024.1 |
| 20260508194027 | 49 | 195 | 0.0 | 0.0 | 0.00 | 0.00 | 0.00 | 78 | 1024.1 |
| 20260508193527 | 49 | 195 | 0.0 | 0.0 | 0.00 | 0.00 | 0.00 | 77 | 1024.0 |
| 20260508193030 | 49 | 195 | 0.0 | 0.0 | 0.00 | 0.00 | 0.00 | 76 | 1024.0 |
| 20260508192526 | 50 | 195 | 0.0 | 0.0 | 0.00 | 0.00 | 0.00 | 76 | 1023.9 |
| 20260508192027 | 51 | 195 | 0.0 | 0.0 | 0.00 | 0.00 | 0.00 | 75 | 1023.9 |
| 20260508191527 | 51 | 195 | 0.0 | 0.0 | 0.00 | 0.00 | 0.00 | 74 | 1023.8 |
| 20260508191024 | 52 | 195 | 0.0 | 0.0 | 0.00 | 0.00 | 0.00 | 73 | 1023.8 |
| 20260508190527 | 53 | 195 | 0.0 | 0.0 | 0.00 | 0.00 | 0.00 | 72 | 1023.8 |
| 20260508190044 | 53 | 195 | 0.0 | 0.9 | 0.00 | 0.00 | 0.00 | 72 | 1023.7 |
| 20260508185527 | 54 | 195 | 0.0 | 1.7 | 0.00 | 0.00 | 0.00 | 71 | 1023.6 |
| 20260508185023 | 54 | 195 | 0.0 | 2.6 | 0.00 | 0.00 | 0.00 | 71 | 1023.5 |
| 20260508184531 | 54 | 195 | 0.0 | 2.6 | 0.00 | 0.00 | 0.00 | 71 | 1023.5 |
| 20260508184027 | 54 | 195 | 0.0 | 2.6 | 0.00 | 0.00 | 0.00 | 72 | 1023.5 |
| 20260508183523 | 54 | 195 | 0.0 | 2.6 | 0.00 | 0.00 | 0.00 | 71 | 1023.4 |
| 20260508183034 | 54 | 177 | 0.9 | 2.6 | 0.00 | 0.00 | 0.00 | 70 | 1023.5 |
| 20260508182523 | 54 | 184 | 0.0 | 3.5 | 0.00 | 0.00 | 0.00 | 70 | 1023.5 |
| 20260508182022 | 54 | 184 | 1.7 | 3.5 | 0.00 | 0.00 | 0.00 | 70 | 1023.5 |
| 20260508181522 | 55 | 187 | 0.9 | 4.3 | 0.00 | 0.00 | 0.00 | 70 | 1023.4 |
| 20260508181022 | 55 | 207 | 0.9 | 4.3 | 0.00 | 0.00 | 0.00 | 69 | 1023.4 |
| 20260508180522 | 55 | 203 | 0.9 | 4.3 | 0.00 | 0.00 | 0.00 | 69 | 1023.4 |
| 20260508180022 | 55 | 170 | 1.7 | 4.3 | 0.00 | 0.00 | 0.00 | 68 | 1023.3 |
| 20260508175522 | 55 | 181 | 1.7 | 3.5 | 0.00 | 0.00 | 0.00 | 68 | 1023.3 |
| 20260508175022 | 56 | 217 | 0.9 | 5.2 | 0.00 | 0.00 | 0.00 | 66 | 1023.2 |
| 20260508174521 | 56 | 162 | 0.9 | 6.1 | 0.00 | 0.00 | 0.00 | 64 | 1023.1 |
| 20260508174021 | 56 | 194 | 0.9 | 4.3 | 0.00 | 0.00 | 0.00 | 63 | 1023.2 |
| 20260508173521 | 56 | 173 | 1.7 | 5.2 | 0.00 | 0.00 | 0.00 | 62 | 1023.2 |
| 20260508173022 | 56 | 186 | 0.9 | 7.0 | 0.00 | 0.00 | 0.00 | 61 | 1023.1 |
| 20260508172524 | 57 | 220 | 0.9 | 4.3 | 0.00 | 0.00 | 0.00 | 61 | 1023.2 |
| 20260508172020 | 57 | 175 | 1.7 | 3.5 | 0.00 | 0.00 | 0.00 | 60 | 1023.2 |
| 20260508171520 | 57 | 180 | 0.9 | 4.3 | 0.00 | 0.00 | 0.00 | 58 | 1023.2 |
| 20260508171019 | 57 | 223 | 0.9 | 6.1 | 0.00 | 0.00 | 0.00 | 56 | 1023.1 |
| 20260508170621 | 57 | 192 | 2.6 | 6.1 | 0.00 | 0.00 | 0.00 | 55 | 1023.1 |
| 20260508170030 | 58 | 192 | 1.7 | 5.2 | 0.00 | 0.00 | 0.00 | 54 | 1023.1 |
| 20260508165519 | 58 | 202 | 1.7 | 3.5 | 0.00 | 0.00 | 0.00 | 55 | 1023.2 |
| 20260508165021 | 59 | 154 | 0.9 | 3.5 | 0.00 | 0.00 | 0.00 | 54 | 1023.1 |
| 20260508164524 | 59 | 182 | 1.7 | 5.2 | 0.00 | 0.00 | 0.00 | 52 | 1023.1 |
| 20260508164019 | 59 | 203 | 2.6 | 5.2 | 0.00 | 0.00 | 0.00 | 51 | 1023.0 |
| 20260508163518 | 59 | 199 | 1.7 | 6.1 | 0.00 | 0.00 | 0.00 | 50 | 1023.1 |
| 20260508163020 | 60 | 79 | 0.9 | 2.6 | 0.00 | 0.00 | 0.00 | 50 | 1023.0 |
| 20260508162518 | 59 | 177 | 0.0 | 4.3 | 0.00 | 0.00 | 0.00 | 50 | 1023.0 |
| 20260508162018 | 59 | 164 | 2.6 | 4.3 | 0.00 | 0.00 | 0.00 | 50 | 1023.0 |
| 20260508161518 | 59 | 196 | 0.9 | 4.3 | 0.00 | 0.00 | 0.00 | 51 | 1023.0 |
| 20260508161018 | 58 | 231 | 1.7 | 7.0 | 0.00 | 0.00 | 0.00 | 50 | 1023.0 |
| 20260508160517 | 59 | 202 | 3.5 | 7.0 | 0.00 | 0.00 | 0.00 | 46 | 1023.1 |
| 20260508160019 | 59 | 157 | 2.6 | 6.1 | 0.00 | 0.00 | 0.00 | 47 | 1023.1 |
| 20260508155519 | 60 | 194 | 1.7 | 5.2 | 0.00 | 0.00 | 0.00 | 48 | 1023.1 |
| 20260508155017 | 60 | 188 | 1.7 | 5.2 | 0.00 | 0.00 | 0.00 | 47 | 1023.1 |
| 20260508154517 | 60 | 157 | 1.7 | 6.1 | 0.00 | 0.00 | 0.00 | 48 | 1023.1 |
| 20260508154016 | 60 | 193 | 3.5 | 6.1 | 0.00 | 0.00 | 0.00 | 48 | 1023.0 |
| 20260508153517 | 60 | 76 | 0.9 | 5.2 | 0.00 | 0.00 | 0.00 | 48 | 1023.1 |
| 20260508153028 | 60 | 154 | 1.7 | 5.2 | 0.00 | 0.00 | 0.00 | 48 | 1023.1 |
| 20260508152519 | 60 | 198 | 1.7 | 3.5 | 0.00 | 0.00 | 0.00 | 47 | 1023.0 |
| 20260508152016 | 61 | 211 | 1.7 | 5.2 | 0.00 | 0.00 | 0.00 | 46 | 1023.0 |
| 20260508151516 | 61 | 154 | 0.9 | 5.2 | 0.00 | 0.00 | 0.00 | 45 | 1023.1 |
| 20260508151016 | 61 | 167 | 1.7 | 5.2 | 0.00 | 0.00 | 0.00 | 43 | 1023.1 |
| 20260508150517 | 60 | 90 | 1.7 | 5.2 | 0.00 | 0.00 | 0.00 | 45 | 1023.1 |
| 20260508150016 | 60 | 136 | 1.7 | 6.1 | 0.00 | 0.00 | 0.00 | 45 | 1023.1 |
| 20260508145514 | 61 | 195 | 1.7 | 5.2 | 0.00 | 0.00 | 0.00 | 45 | 1023.2 |
| 20260508145014 | 60 | 175 | 2.6 | 5.2 | 0.00 | 0.00 | 0.00 | 42 | 1023.2 |
| 20260508144524 | 60 | 235 | 2.6 | 7.8 | 0.00 | 0.00 | 0.00 | 42 | 1023.2 |
| 20260508144013 | 62 | 209 | 2.6 | 7.8 | 0.00 | 0.00 | 0.00 | 46 | 1023.3 |
| 20260508143512 | 62 | 99 | 0.9 | 5.2 | 0.00 | 0.00 | 0.00 | 46 | 1023.3 |
| 20260508143011 | 62 | 173 | 0.9 | 5.2 | 0.00 | 0.00 | 0.00 | 48 | 1023.3 |
| 20260508142510 | 62 | 155 | 0.9 | 5.2 | 0.00 | 0.00 | 0.00 | 50 | 1023.4 |
| 20260508142015 | 61 | 183 | 0.9 | 5.2 | 0.00 | 0.00 | 0.00 | 51 | 1023.4 |
| 20260508141512 | 61 | 97 | 0.9 | 4.3 | 0.00 | 0.00 | 0.00 | 49 | 1023.4 |
| 20260508141009 | 61 | 181 | 1.7 | 6.1 | 0.00 | 0.00 | 0.00 | 50 | 1023.4 |
| 20260508140509 | 61 | 194 | 1.7 | 6.1 | 0.00 | 0.00 | 0.00 | 51 | 1023.4 |
| 20260508140019 | 61 | 180 | 0.9 | 7.0 | 0.00 | 0.00 | 0.00 | 51 | 1023.4 |
| 20260508135510 | 61 | 157 | 0.9 | 7.0 | 0.00 | 0.00 | 0.00 | 51 | 1023.4 |
| 20260508135010 | 61 | 150 | 1.7 | 4.3 | 0.00 | 0.00 | 0.00 | 50 | 1023.5 |
| 20260508134508 | 60 | 219 | 1.7 | 6.1 | 0.00 | 0.00 | 0.00 | 50 | 1023.5 |
| 20260508134007 | 60 | 123 | 1.7 | 7.8 | 0.00 | 0.00 | 0.00 | 51 | 1023.5 |
| 20260508133507 | 60 | 202 | 2.6 | 7.8 | 0.00 | 0.00 | 0.00 | 54 | 1023.5 |
| 20260508133006 | 61 | 192 | 2.6 | 6.1 | 0.00 | 0.00 | 0.00 | 60 | 1023.6 |
| 20260508132508 | 62 | 50 | 0.9 | 5.2 | 0.00 | 0.00 | 0.00 | 62 | 1023.6 |
| 20260508132004 | 61 | 121 | 2.6 | 5.2 | 0.00 | 0.00 | 0.00 | 64 | 1023.6 |
| 20260508131503 | 61 | 117 | 1.7 | 6.1 | 0.00 | 0.00 | 0.00 | 66 | 1023.7 |
| 20260508131004 | 60 | 83 | 0.9 | 5.2 | 0.00 | 0.00 | 0.00 | 66 | 1023.7 |
| 20260508130503 | 60 | 118 | 1.7 | 5.2 | 0.00 | 0.00 | 0.00 | 66 | 1023.7 |
| 20260508130001 | 61 | 71 | 0.9 | 5.2 | 0.00 | 0.00 | 0.00 | 67 | 1023.7 |
| 20260508125600 | 60 | 16 | 0.9 | 5.2 | 0.00 | 0.00 | 0.00 | 67 | 1023.7 |
| 20260508125058 | 60 | 124 | 1.7 | 5.2 | 0.00 | 0.00 | 0.00 | 68 | 1023.7 |
| 20260508124558 | 59 | 135 | 0.9 | 4.3 | 0.00 | 0.00 | 0.00 | 71 | 1023.7 |
| 20260508124057 | 59 | 117 | 1.7 | 4.3 | 0.00 | 0.00 | 0.00 | 69 | 1023.7 |
| 20260508123557 | 59 | 101 | 2.6 | 5.2 | 0.00 | 0.00 | 0.00 | 68 | 1023.7 |
| 20260508123114 | 59 | 60 | 1.7 | 6.1 | 0.00 | 0.00 | 0.00 | 69 | 1023.7 |
| 20260508122555 | 59 | 189 | 2.6 | 6.1 | 0.00 | 0.00 | 0.00 | 67 | 1023.7 |
| 20260508122056 | 59 | 162 | 1.7 | 7.0 | 0.00 | 0.00 | 0.00 | 68 | 1023.7 |
| 20260508121607 | 59 | 60 | 2.6 | 7.0 | 0.00 | 0.00 | 0.00 | 67 | 1023.7 |
| 20260508121054 | 59 | 72 | 2.6 | 6.1 | 0.00 | 0.00 | 0.00 | 66 | 1023.6 |
| 20260508120553 | 59 | 169 | 1.7 | 6.1 | 0.00 | 0.00 | 0.00 | 67 | 1023.6 |
| 20260508120108 | 59 | 182 | 2.6 | 7.0 | 0.00 | 0.00 | 0.00 | 66 | 1023.7 |
| 20260508115553 | 59 | 171 | 2.6 | 7.0 | 0.00 | 0.00 | 0.00 | 63 | 1023.8 |
| 20260508115051 | 59 | 155 | 1.7 | 7.0 | 0.00 | 0.00 | 0.00 | 62 | 1023.8 |
| 20260508114559 | 59 | 166 | 2.6 | 7.0 | 0.00 | 0.00 | 0.00 | 63 | 1023.7 |
| 20260508114053 | 59 | 107 | 2.6 | 7.0 | 0.00 | 0.00 | 0.00 | 61 | 1023.7 |
| 20260508113553 | 59 | 139 | 1.7 | 7.0 | 0.00 | 0.00 | 0.00 | 64 | 1023.6 |
| 20260508113103 | 59 | 180 | 2.6 | 7.0 | 0.00 | 0.00 | 0.00 | 62 | 1023.6 |
| 20260508112548 | 59 | 355 | 1.7 | 6.1 | 0.00 | 0.00 | 0.00 | 62 | 1023.6 |
| 20260508112047 | 59 | 236 | 1.7 | 6.1 | 0.00 | 0.00 | 0.00 | 62 | 1023.6 |
| 20260508111550 | 59 | 128 | 2.6 | 7.0 | 0.00 | 0.00 | 0.00 | 62 | 1023.7 |
| 20260508111049 | 60 | 100 | 2.6 | 6.1 | 0.00 | 0.00 | 0.00 | 62 | 1023.7 |
| 20260508110546 | 59 | 128 | 1.7 | 4.3 | 0.00 | 0.00 | 0.00 | 65 | 1023.7 |
| 20260508110045 | 59 | 141 | 1.7 | 8.7 | 0.00 | 0.00 | 0.00 | 64 | 1023.7 |
| 20260508105545 | 59 | 203 | 2.6 | 7.0 | 0.00 | 0.00 | 0.00 | 62 | 1023.6 |
| 20260508105044 | 59 | 122 | 1.7 | 7.0 | 0.00 | 0.00 | 0.00 | 61 | 1023.7 |
| 20260508104547 | 60 | 213 | 1.7 | 7.8 | 0.00 | 0.00 | 0.00 | 61 | 1023.6 |
| 20260508104043 | 60 | 78 | 0.9 | 6.1 | 0.00 | 0.00 | 0.00 | 59 | 1023.6 |
| 20260508103542 | 59 | 110 | 1.7 | 6.1 | 0.00 | 0.00 | 0.00 | 62 | 1023.6 |
| 20260508103054 | 59 | 86 | 1.7 | 5.2 | 0.00 | 0.00 | 0.00 | 61 | 1023.6 |
| 20260508102539 | 58 | 175 | 1.7 | 7.0 | 0.00 | 0.00 | 0.00 | 63 | 1023.5 |
| 20260508102038 | 58 | 73 | 2.6 | 7.8 | 0.00 | 0.00 | 0.00 | 61 | 1023.6 |
| 20260508101544 | 58 | 182 | 3.5 | 7.8 | 0.00 | 0.00 | 0.00 | 62 | 1023.5 |
| 20260508101037 | 58 | 167 | 2.6 | 5.2 | 0.00 | 0.00 | 0.00 | 62 | 1023.5 |
| 20260508100536 | 58 | 17 | 1.7 | 6.1 | 0.00 | 0.00 | 0.00 | 61 | 1023.5 |
| 20260508100035 | 58 | 148 | 1.7 | 7.8 | 0.00 | 0.00 | 0.00 | 60 | 1023.4 |
| 20260508095537 | 57 | 21 | 2.6 | 7.8 | 0.00 | 0.00 | 0.00 | 57 | 1023.4 |
| 20260508095034 | 58 | 185 | 2.6 | 7.0 | 0.00 | 0.00 | 0.00 | 57 | 1023.4 |
| 20260508094535 | 58 | 159 | 2.6 | 5.2 | 0.00 | 0.00 | 0.00 | 53 | 1023.4 |
| 20260508094034 | 59 | 242 | 0.9 | 7.0 | 0.00 | 0.00 | 0.00 | 53 | 1023.4 |
| 20260508093533 | 58 | 52 | 2.6 | 7.0 | 0.00 | 0.00 | 0.00 | 54 | 1023.5 |
| 20260508093038 | 58 | 205 | 1.7 | 6.1 | 0.00 | 0.00 | 0.00 | 56 | 1023.4 |
| 20260508092531 | 58 | 164 | 1.7 | 6.1 | 0.00 | 0.00 | 0.00 | 56 | 1023.4 |
| 20260508092030 | 59 | 118 | 1.7 | 6.1 | 0.00 | 0.00 | 0.00 | 55 | 1023.5 |